User: anonymous
Location: Mentone
(34.5413°N, 85.5351°W)
Time: 19:22:07
(UTC-05:00)
Language:

Tiros 1 despin weight - Orbit

View from above orbital plane
View from above orbital plane
View from above satellite
View from above satellite

Ground track
Ground track

The orbit data is extracted from the following two-line orbital elements,

1 00115U 60002D   14231.98432907  .00000587  00000-0  10285-3 0  4374
2 00115 048.1672 057.8378 0037122 237.8638 254.8393 14.80677536897091
Epoch (UTC): 19 August 2014 23:37:26
Eccentricity: 0.0037122
inclination: 48.1672°
perigee height: 601 km
apogee height: 653 km
right ascension of ascending node: 57.8378°
argument of perigee: 237.8638°
revolutions per day: 14.80677536
mean anomaly at epoch: 254.8393°
orbit number at epoch: 89709

The dashed part of the orbit path shows where the satellite is in the earth's shadow,  

DLR